Home   Weather   Joinville   Past weeks

Flag for Brazil Past Weather in Joinville, Santa Catarina, Brazil — Yesterday and Last 2 Weeks

Now
75 °F

Partly sunny.


Feels Like: 77 °F
Forecast: 66 / 79 °F
Wind: 8 mph from Northeast

Location: Curitiba Aeroporto

Current Time: Apr 25, 2017 at 3:43:22 pm

Latest Report: Apr 25, 2017 at 3:00 pm


Visibility: N/A

Pressure: 29.92 "Hg

Humidity: 65%

Dew Point: 63 °F

Location of JoinvilleLocation

Past Weather in Joinville — Graph

°F

Joinville Temperature Yesterday

Maximum temperature yesterday: 72 °F (at 1:00 pm)
Minimum temperature yesterday: 55 °F (at 12:00 am)
Average temperature yesterday: 62 °F

High & Low Weather Summary for the Past Weeks

 TemperatureHumidityPressure
High81 °F (Apr 11, 2:00 pm)100% (Apr 10, 9:00 pm)30.27 "Hg (Apr 10, 9:00 pm)
Low48 °F (Apr 11, 4:00 am)42% (Apr 15, 3:00 pm)29.92 "Hg (Apr 21, 3:00 am)
Average63 °F86%30.12 "Hg
* Reported Apr 10 2:00 pm — Apr 25 2:00 pm, Joinville, Weather by CustomWeather, © 2017

Note: Actual official high and low records may vary slightly from our data, if they occured in-between our weather recording intervals... More about our weather records

Advertising

Joinville Weather History for the Previous 24 Hours

Scroll right to see more
 ConditionsComfort  
Time TempWeatherWind HumidityBarometerVisibility
2:00 pm
Tue, Apr 25
75 °FPartly sunny.9 mph61%29.92 "HgN/A
1:00 pm73 °FScattered clouds.8 mph69%29.95 "HgN/A
12:00 pm70 °FPartly sunny.10 mph73%30.01 "HgN/A
11:00 am68 °FPartly sunny.9 mph78%30.04 "HgN/A
10:00 am64 °FPartly sunny.8 mph88%30.04 "HgN/A
8:00 am63 °FLow clouds.8 mph88%30.04 "Hg5 mi
7:00 am61 °FMostly cloudy.5 mph94%30.04 "Hg5 mi
6:00 am61 °FPassing clouds.5 mph94%30.01 "HgN/A
4:00 am61 °FPassing clouds.5 mph94%30.01 "HgN/A
3:00 am61 °FPassing clouds.6 mph94%30.04 "HgN/A
2:00 am63 °FPassing clouds.6 mph88%30.07 "HgN/A
1:00 am63 °FPassing clouds.5 mph88%30.09 "HgN/A
12:00 am61 °FPartly cloudy.8 mph94%30.09 "HgN/A
11:00 pm
Mon, Apr 24
63 °FPassing clouds.7 mph88%30.09 "HgN/A
10:00 pm63 °FMostly cloudy.7 mph88%30.12 "HgN/A
9:00 pm63 °FMostly cloudy.6 mph94%30.12 "HgN/A
8:00 pm63 °FPartly cloudy.5 mph88%30.12 "HgN/A
7:00 pm63 °FPartly cloudy.7 mph88%30.09 "HgN/A
6:10 pm63 °FPartly cloudy.7 mph88%30.09 "HgN/A
6:00 pm63 °FPassing clouds.7 mph88%30.09 "HgN/A
5:00 pm66 °FScattered clouds.9 mph83%30.09 "HgN/A
Weather by CustomWeather, © 2017

See weather overviewHow to use our weather pages